{"data":{"norad_id":62519,"intl_designator":"2025-004J","name":"STARLINK-11507 [DTC]","alt_names":[],"object_type":"PAYLOAD","status":"ACTIVE","operator":null,"country":"US","launch_date":"2025-01-08","launch_site_code":"AFETR","launch_vehicle":null,"mission":null,"orbit_class":"UNKNOWN","rcs_meters":null,"size_class":null,"mass_kg":null,"dimensions":null,"purposes":["comms"],"wikipedia_slug":null,"has_3d_model":false,"image_url":null,"decayed_at":null,"tle_current":{"epoch":"2026-05-23T19:44:35.525760Z","epoch_age_seconds":170167,"freshness":"FRESH","line1":"1 62519U 25004J   26143.82263340  .00149603  00000+0  11479-2 0  9994","line2":"2 62519  43.0005 337.9714 0001493 259.2668 100.8032 15.70853500 79022","mean_motion":15.708535,"eccentricity":0.0001493,"inclination_deg":43.0005,"raan_deg":337.9714,"arg_perigee_deg":259.2668,"mean_anomaly_deg":100.8032,"bstar":0.0011479,"rev_number":7902,"period_min":91.66991065685,"perigee_km":355.45100151232,"apogee_km":357.46195112435,"semimajor_km":6734.5934763183,"source":"CELESTRAK","updated_at":"2026-05-25T13:38:19.703438Z"}}}